AO-07 1 07530U 74089B 21049.44712769 -.00000030 00000-0 98818-4 0 9991 2 07530 101.8394 24.1463 0011929 250.8186 261.6682 12.53647355116814 UO-11 1 14781U 84021B 21049.46213268 .00000109 00000-0 19433-4 0 9998 2 14781 97.5915 55.1751 0009884 109.5624 250.6659 14.83247823968298 LO-19 1 20442U 90005G 21049.57639128 .00000015 00000-0 21927-4 0 9994 2 20442 98.7263 4.0615 0012307 146.1652 214.0319 14.32976325623804 HUBBLE 1 20580U 90037B 21049.59095943 .00000494 00000-0 18945-4 0 9992 2 20580 28.4695 131.5117 0002488 219.1489 277.9621 15.09558091493111 MET-2/21 1 22782U 93055A 21049.44730656 .00000023 00000-0 71650-5 0 9993 2 22782 82.5484 38.3568 0021054 265.2489 249.3103 13.83832228387061 AO-27 1 22825U 93061C 21049.50938131 -.00000011 00000-0 13614-4 0 9996 2 22825 98.9245 64.1620 0008857 27.6480 332.5170 14.30106280428989 IO-26 1 22826U 93061D 21049.50789413 -.00000005 00000-0 15853-4 0 9994 2 22826 98.9186 64.0806 0009162 15.4634 344.6826 14.30444072429229 FO-29 1 24278U 96046B 21049.77092596 -.00000026 00000-0 64316-5 0 9993 2 24278 98.5797 133.4156 0351285 97.0783 267.0434 13.53102251210441 NOAA-15 1 25338U 98030A 21049.78789921 .00000012 00000-0 23443-4 0 9991 2 25338 98.6960 79.2954 0009354 265.3778 94.6334 14.26013404184339 GO-32 1 25397U 98043D 21049.56427101 .00000000 00000-0 19661-4 0 9999 2 25397 98.7582 355.5285 0002362 76.8688 283.2754 14.23701380174570 ISS 1 25544U 98067A 21049.90802664 .00001724 00000-0 39477-4 0 9999 2 25544 51.6438 207.7445 0003087 31.0633 67.9237 15.48977361270264 NO-44 1 26931U 01043C 21049.46913121 -.00000029 00000-0 20804-4 0 9992 2 26931 67.0493 227.5080 0007336 269.2336 90.7925 14.30606539 12222 SO-50 1 27607U 02058C 21049.50611148 .00000009 00000-0 21602-4 0 9993 2 27607 64.5574 342.0634 0030101 71.6177 288.8195 14.75712343977002 CO-55 1 27844U 03031E 21049.79870841 .00000050 00000-0 42147-4 0 9999 2 27844 98.6826 59.7984 0010854 65.5127 294.7182 14.22288760915156 CO-57 1 27848U 03031J 21049.47522804 .00000032 00000-0 34125-4 0 9998 2 27848 98.6887 60.0479 0010833 78.1176 282.1216 14.21868344914904 RS-22 1 27939U 03042A 21049.90365189 .00000081 00000-0 23155-4 0 9995 2 27939 98.1203 187.9672 0011624 296.7694 63.2311 14.66944402930145 NOAA-18 1 28654U 05018A 21049.59191666 .00000081 00000-0 68354-4 0 9997 2 28654 99.0104 113.9054 0013375 255.9635 104.0050 14.12582186811757 CO-58 1 28895U 05043F 21049.63047551 .00000137 00000-0 35185-4 0 9998 2 28895 98.0386 185.6033 0015999 221.1517 138.8480 14.63865875816624 Falconsat-3 1 30776U 07006E 21049.55043766 .00003810 00000-0 95637-4 0 9994 2 30776 35.4342 143.7484 0003217 258.1670 101.8697 15.39578762774765 CO-65 1 32785U 08021C 21049.42905515 .00000273 00000-0 34900-4 0 9995 2 32785 97.5992 32.9822 0014024 42.7914 317.4393 14.88633318694534 AAUSAT2 1 32788U 08021F 21049.45813298 .00000625 00000-0 61470-4 0 9990 2 32788 97.5002 49.1517 0010521 314.9863 45.0505 14.95391258696077 DO-64 1 32789U 08021G 21049.56692718 .00001333 00000-0 89236-4 0 9992 2 32789 97.3913 89.4578 0011908 183.6285 176.4860 15.08499163698906 CO-66 1 32791U 08021J 21049.67133030 .00000290 00000-0 34483-4 0 9999 2 32791 97.5615 39.2314 0013433 8.9588 351.1869 14.91278869695155 RS-30 1 32953U 08025A 21049.83703185 .00000028 00000-0 12906-3 0 9999 2 32953 82.5050 124.7125 0018792 232.9835 126.9526 12.43099947578240 PRISM 1 33493U 09002B 21049.32891212 .00000480 00000-0 46784-4 0 9992 2 33493 98.1738 6.2570 0014524 324.8399 35.1862 14.97432150656495 NOAA-19 1 33591U 09005A 21049.82742761 .00000013 00000-0 32087-4 0 9996 2 33591 99.1925 67.5410 0014891 104.5055 255.7769 14.12452394620176 TISAT-1 1 36799U 10035E 21049.45222223 .00000549 00000-0 60800-4 0 9997 2 36799 98.2041 235.4477 0011097 240.9263 119.0843 14.91603241575594 JUGNU 1 37839U 11058B 21049.88027529 .00000313 00000-0 24742-4 0 9992 2 37839 19.9599 228.3095 0018873 225.1342 274.5595 14.12703818483781 SRMSAT 1 37841U 11058D 21049.39555352 .00000313 00000-0 26658-4 0 9999 2 37841 19.9724 300.6684 0011892 66.3552 89.0522 14.10685258482888 AO-71 1 37854U 11061E 21049.57654002 .00001094 00000-0 61403-4 0 9993 2 37854 101.7112 274.2972 0155876 49.5437 311.9248 15.08162795508565 HRBE 1 37855U 11061F 21049.54842779 .00001233 00000-0 67068-4 0 9999 2 37855 101.7251 271.2936 0168299 64.2289 297.6183 15.07200906508260 HORYU-2 1 38340U 12025D 21049.44349003 .00000164 00000-0 31724-4 0 9993 2 38340 98.2482 114.5047 0010832 341.9474 18.1348 14.75976442460836 RS-40 1 38735U 12041C 21049.75127912 .00000015 00000-0 36465-4 0 9998 2 38735 82.4754 207.0815 0016778 347.3575 12.7082 12.42581918388442 BEESAT-3 1 39135U 13015F 21049.55577185 .00001414 00000-0 76854-4 0 9994 2 39135 64.8649 226.2273 0012142 199.7409 160.3250 15.18921450432588 BEESAT-2 1 39136U 13015G 21049.76787781 .00001266 00000-0 70665-4 0 9992 2 39136 64.8734 231.4499 0027962 259.1239 100.6740 15.18307602432892 ZACUBE-1 1 39417U 13066B 21049.44157721 .00000196 00000-0 30845-4 0 9997 2 39417 97.5834 40.0064 0058381 189.8950 170.1119 14.81429048391454 TRITON-1 1 39427U 13066M 21049.80044717 .00000281 00000-0 52510-4 0 9996 2 39427 97.7610 3.5305 0113853 11.0264 349.3398 14.68153187388000 GOMX-1 1 39430U 13066Q 21049.72855435 .00000163 00000-0 38026-4 0 9993 2 39430 97.8109 339.6433 0151713 128.4958 232.9964 14.59535057385725 LO-74 1 39440U 13066AA 21049.35817012 .00000210 00000-0 36252-4 0 9994 2 39440 97.6619 24.6856 0078433 261.9019 97.3287 14.76163945388858 AO-73 1 39444U 13066AE 21049.43036249 .00000272 00000-0 39451-4 0 9994 2 39444 97.5751 42.3321 0057690 180.8661 179.2463 14.82317112389802 SPROUT 1 39770U 14029E 21049.74636896 .00000888 00000-0 10238-3 0 9998 2 39770 97.9066 161.2313 0007948 233.8556 126.1989 14.88182853365684 DUCHIFAT-1 1 40021U 14033M 21049.77127310 .00000599 00000-0 66163-4 0 9991 2 40021 97.9629 348.7928 0012351 189.6076 170.4907 14.91183638362598 NANOSATCBR1 1 40024U 14033Q 21049.80026584 .00000286 00000-0 35391-4 0 9991 2 40024 97.9440 344.3435 0011583 194.4125 165.6764 14.90307102362446 DTUSAT-2 1 40030U 14033W 21049.74181922 .00000298 00000-0 37791-4 0 9998 2 40030 97.9125 337.0545 0011198 199.2361 160.8434 14.88892712362164 EO-80 1 40032U 14033Y 21049.29826300 .00000255 00000-0 33201-4 0 9991 2 40032 97.9133 336.6161 0011122 201.5938 158.4811 14.88846701361560 ANTELSAT 1 40034U 14033AA 21049.49495166 .00000205 00000-0 37667-4 0 9992 2 40034 97.6890 259.0310 0057169 283.8290 75.6562 14.74400417358135 VELOX-1 1 40057U 14034E 21049.66350254 .00000324 00000-0 52560-4 0 9996 2 40057 98.3088 199.9067 0012142 80.0064 280.2522 14.78068055357991 DAURIA DX 1 1 40071U 14037C 21049.78227913 .00000097 00000-0 19917-4 0 9999 2 40071 98.4581 247.8777 0009643 70.8544 289.3717 14.81453264357720 HODOYOSHI-1 1 40299U 14070B 21049.83908234 .00000711 00000-0 31714-4 0 9998 2 40299 97.2986 126.5800 0014262 52.3759 56.6006 15.24475769349341 CHUBUSAT-1 1 40300U 14070C 21049.78280764 .00000734 00000-0 34003-4 0 9995 2 40300 97.2587 117.2122 0021296 66.6769 55.5766 15.22947157348993 QSAT-EOS 1 40301U 14070D 21049.85087604 .00002113 00000-0 79224-4 0 9999 2 40301 97.2670 124.4644 0025426 38.3160 72.6452 15.28043435349542 FIREBIRD FU3 1 40377U 15003B 21049.55740434 .00003727 00000-0 14064-3 0 9995 2 40377 99.0825 166.1186 0119750 210.8247 148.5915 15.21447919334705 FIREBIRD FU4 1 40378U 15003C 21049.60334023 .00004108 00000-0 15430-3 0 9997 2 40378 99.0829 166.2961 0119861 210.5043 148.9179 15.21487651334721 GRIFEX 1 40379U 15003D 21049.53762994 .00002022 00000-0 86224-4 0 9995 2 40379 99.0820 156.5246 0129340 240.8331 117.9906 15.17374353334149 NO-84 1 40654U 15025D 21048.11349378 .00023823 00000-0 20953-3 0 1940 2 40654 54.9806 246.7732 0097016 106.9187 254.2557 15.62742443207152 DEORBITSAIL 1 40719U 15032E 21049.40108362 .00000385 00000-0 61359-4 0 9996 2 40719 97.8439 297.6024 0017173 129.3356 230.9380 14.77238183302409 NUDT-PHONESAT 1 40900U 15049B 21049.83067334 .00002792 00000-0 11291-3 0 9999 2 40900 97.4260 64.7631 0011928 188.5813 296.5302 15.25509526300735 XW-2A 1 40903U 15049E 21049.90529142 .00002639 00000-0 58831-4 0 9992 2 40903 97.2540 104.7036 0014570 88.0074 29.4154 15.44403570304498 XW-2C 1 40906U 15049H 21049.87150789 .00000858 00000-0 47449-4 0 9992 2 40906 97.4843 53.7364 0013225 234.8617 242.7652 15.16488107299591 XW-2D 1 40907U 15049J 21049.82463258 .00000706 00000-0 39330-4 0 9998 2 40907 97.4839 53.4478 0012561 231.5915 251.2065 15.16773146299613 LILACSAT-2 1 40908U 15049K 21049.87467876 .00000423 00000-0 26679-4 0 9992 2 40908 97.5014 51.5105 0014187 247.7308 196.4361 15.14289348299283 XW-2E 1 40909U 15049L 21049.83481862 .00001150 00000-0 57971-4 0 9997 2 40909 97.4670 57.3123 0012299 217.7530 264.2204 15.19110405299924 XW-2F 1 40910U 15049M 21049.86478190 .00001305 00000-0 66270-4 0 9996 2 40910 97.4725 56.4157 0013453 217.3670 262.0381 15.18616528299724 XW-2B 1 40911U 15049N 21049.87292868 .00000788 00000-0 43600-4 0 9990 2 40911 97.4840 54.1893 0012451 232.6171 173.3585 15.16693984299514 DCBB 1 40912U 15049P 21049.86075527 .00001366 00000-0 64423-4 0 9990 2 40912 97.4480 60.7462 0014183 190.7977 290.6730 15.21096343300163 TW-1C 1 40926U 15051B 21049.74587762 .00510593 12415-3 76344-3 0 9991 2 40926 97.0320 112.2050 0004416 214.4038 243.4710 16.04780872305813 TW-1A 1 40928U 15051D 21049.52010928 .00004165 00000-0 91413-4 0 9996 2 40928 97.0890 77.3056 0010253 20.4617 137.0449 15.44541062303328 IO-86 1 40931U 15052B 21049.60505829 .00000655 00000-0 21368-5 0 9992 2 40931 6.0002 20.0019 0012836 161.2131 198.8315 14.76662476291707 LQSat 1 40958U 15057A 21049.81649138 .00000012 00000-0 93162-5 0 9999 2 40958 97.8207 110.7182 0019592 79.4329 280.9076 14.73155967288773 ATHENOXAT-1 1 41168U 15077C 21049.67680866 .00002362 00000-0 85791-4 0 9990 2 41168 14.9876 53.9414 0011980 325.7067 180.2682 15.15188811286734 ChubuSat-2 1 41338U 16012B 21049.85758701 .00000346 00000-0 20070-4 0 9992 2 41338 31.0020 219.9939 0013586 37.5582 322.6000 15.00442400274772 ChubuSat-3 1 41339U 16012C 21049.82598827 .00000345 00000-0 19968-4 0 9994 2 41339 31.0108 217.5464 0013544 44.4231 315.7491 15.00596972274769 Horyu-4 1 41340U 16012D 21049.58307477 .00000550 00000-0 34632-4 0 9991 2 41340 31.0039 204.0968 0013664 71.8046 288.4077 15.01744890274902 OUFTI-1 1 41458U 16025C 21049.30276559 .00002908 00000-0 14374-3 0 9990 2 41458 98.1245 179.4035 0161447 101.4779 260.4626 15.08001243264512 e-st@r-II 1 41459U 16025D 21049.82375441 .00003131 00000-0 15583-3 0 9990 2 41459 98.1234 179.1462 0163271 102.5065 259.4480 15.07481692264547 AAUSAT4 1 41460U 16025E 21049.81807390 .00003438 00000-0 16421-3 0 9996 2 41460 98.1224 182.4473 0150629 88.2215 273.6258 15.10267677264806 LO-87 1 41557U 16033B 21049.83142056 .00001633 00000-0 60779-4 0 9996 2 41557 97.3942 144.4969 0011526 299.0801 176.0437 15.28889259263409 NuSat2 1 41558U 16033C 21049.86416684 .00001872 00000-0 65072-4 0 9997 2 41558 97.4028 147.8174 0010457 292.9057 186.2809 15.30968606263579 Lapan A3 1 41603U 16040E 21049.76896281 .00000118 00000-0 85246-5 0 9998 2 41603 97.2746 101.0896 0014978 62.7707 46.9420 15.19960973258554 Swayam 1 41607U 16040J 21049.11938628 .00001782 00000-0 73628-4 0 9991 2 41607 97.2854 108.3563 0013872 46.1307 314.1074 15.25210854258854 Pratham 1 41783U 16059A 21049.40185334 .00000050 00000-0 18757-4 0 9995 2 41783 97.9829 103.4807 0032212 260.8872 98.8685 14.63112555234843 AlSat 1N 1 41789U 16059G 21049.82107217 .00000078 00000-0 23584-4 0 9995 2 41789 97.9872 107.2921 0027055 244.7965 115.0416 14.64388984235082 ScatSat 1 41790U 16059H 21049.74057819 .00000020 00000-0 16419-4 0 9996 2 41790 98.3859 92.1661 0004018 237.7600 122.3201 14.50795922232932 TY-1 1 41844U 16066D 21049.87709671 .00001024 00000-0 43308-4 0 9990 2 41844 97.4019 61.3280 0014386 189.2848 289.3169 15.25424407237829 Pegasus-1 1 41846U 16066F 21049.42303463 .00000233 00000-0 46059-4 0 9999 2 41846 98.6282 107.6327 0365745 220.1910 137.1703 14.37940932224317 CAS-2T 1 41847U 16066G 21049.78399372 .00000066 00000-0 20700-4 0 9992 2 41847 98.6195 108.3286 0364923 214.3865 143.3214 14.38146639224829 EO-88 1 42017U 17008BX 21049.42947893 .00001911 00000-0 73693-4 0 9996 2 42017 97.3307 119.1286 0006674 157.1822 202.9715 15.27509990223080 CAS-4B 1 42759U 17034B 21049.58117647 .00000354 00000-0 34721-4 0 9990 2 42759 43.0168 114.5339 0008117 144.0704 4.4707 15.10073771203171 CAS-4A 1 42761U 17034D 21049.57805753 .00000368 00000-0 35514-4 0 9990 2 42761 43.0177 113.6897 0008954 147.5361 357.7655 15.10154881203177 UCLSat 1 42765U 17036A 21049.39985823 .00001480 00000-0 63304-4 0 9997 2 42765 97.2680 102.6509 0009665 232.9500 127.0854 15.24331226204033 NIUSat 1 42766U 17036B 21049.35881794 .00001049 00000-0 48374-4 0 9997 2 42766 97.2680 99.3843 0013861 231.0172 128.9831 15.22330173203093 LituanicaSAT 2 1 42768U 17036D 21049.38370067 .00002708 00000-0 10980-3 0 9992 2 42768 97.2747 103.0951 0013067 221.6605 138.3639 15.25401933203318 Aalto 1 1 42775U 17036L 21049.39594090 .00000891 00000-0 41531-4 0 9993 2 42775 97.2654 99.7195 0012339 229.5220 130.4942 15.22346531203088 URSA MAIOR 1 42776U 17036M 21049.41784155 .00000972 00000-0 44727-4 0 9990 2 42776 97.2667 100.1413 0012153 228.7902 131.2287 15.22581606203103 Max Valier Sat 1 42778U 17036P 21049.41610743 .00000993 00000-0 44827-4 0 9997 2 42778 97.2729 101.8459 0010725 230.4737 129.5553 15.23216087203162 Pegasus 1 42784U 17036V 21049.41367711 .00001330 00000-0 57780-4 0 9996 2 42784 97.2685 102.2478 0010216 234.8327 125.1954 15.23951089203226 NUDATSat 1 42787U 17036Y 21049.56161942 .00002113 00000-0 85798-4 0 9993 2 42787 97.2733 104.4260 0009032 234.7701 125.2689 15.25637248203209 SUCHAI 1 1 42788U 17036Z 21049.40513746 .00001597 00000-0 67442-4 0 9991 2 42788 97.2694 103.0808 0009781 231.6502 128.3858 15.24642220203347 SKCUBE 1 42789U 17036AA 21049.41532460 .00001476 00000-0 62941-4 0 9992 2 42789 97.2688 102.8566 0009671 232.1864 127.8499 15.24422013203255 VZLUSAT 1 1 42790U 17036AB 21049.42281872 .00002167 00000-0 87992-4 0 9994 2 42790 97.2718 104.2799 0009191 227.1458 132.9009 15.25611461203336 VENTA 1 1 42791U 17036AC 21049.39324589 .00001343 00000-0 57589-4 0 9998 2 42791 97.2687 102.8613 0009354 232.8606 127.1778 15.24390954203249 Robusta 1B 1 42792U 17036AD 21049.73023230 .00001531 00000-0 64768-4 0 9992 2 42792 97.2691 103.4965 0009272 230.7962 129.2453 15.24642129203330 D-SAT 1 42794U 17036AF 21049.47924670 .00000448 00000-0 44157-4 0 9999 2 42794 97.4723 75.6305 0124257 263.4060 95.3003 14.91454656199327 TechnoSat 1 42829U 17042E 21049.21885063 .00000092 00000-0 14507-4 0 9990 2 42829 97.4874 284.9572 0014088 179.1519 180.9727 14.91219000195913 QIKCOM-1 1 42983U 98067NF 21049.80976833 .00006133 00000-0 67664-4 0 9992 2 42983 51.6370 141.2541 0003007 266.7586 93.3065 15.64622297188814 AO-91 1 43017U 17073E 21049.29699248 .00000898 00000-0 75050-4 0 9994 2 43017 97.7156 317.9675 0255097 329.3646 29.2876 14.79322207175500 EcAMSat 1 43019U 98067NG 21049.55693879 .00016067 00000-0 11935-3 0 9997 2 43019 51.6398 117.1488 0002830 274.2469 85.8206 15.73026672271433 PICSAT 1 43132U 18004X 21049.47237954 .00001620 00000-0 67173-4 0 9990 2 43132 97.4210 125.0659 0007640 266.6393 93.3971 15.25313347172543 AO-92 1 43137U 18004AC 21049.76896593 .00001156 00000-0 49474-4 0 9995 2 43137 97.4190 124.9825 0007282 268.7253 91.3150 15.24810955172563 TianYi 2 1 43155U 18008A 21049.88920832 .00000547 00000-0 35355-4 0 9992 2 43155 97.4172 118.3566 0017864 24.0786 63.5148 15.12124805170153 Zhou Enlai 1 43156U 18008B 21049.86567994 .00001264 00000-0 77741-4 0 9999 2 43156 97.4218 118.1686 0015012 24.3298 103.0675 15.11710266170099 TianYi 6 1 43158U 18008D 21049.76250809 .00000641 00000-0 41865-4 0 9990 2 43158 97.4159 116.8081 0014489 22.3802 93.6488 15.11178860170011 S-Net D 1 43186U 18014G 21049.31262588 -.00000133 00000-0 -65028-5 0 9992 2 43186 97.6856 318.9975 0012261 116.5389 243.7092 14.96972889166476 S-Net B 1 43187U 18014H 21049.37934861 -.00000140 00000-0 -71114-5 0 9990 2 43187 97.6853 319.0338 0012259 116.1704 244.0780 14.96972432166486 S-Net A 1 43188U 18014J 21049.31245877 -.00000121 00000-0 -54627-5 0 9996 2 43188 97.6856 319.0075 0012259 116.5224 243.7257 14.96971172166473 S-Net C 1 43189U 18014K 21049.31294487 -.00000154 00000-0 -83285-5 0 9996 2 43189 97.6852 318.9619 0012246 116.4429 243.8051 14.96971267165022 FMN 1 1 43192U 18015A 21049.86091866 .00002925 00000-0 11277-3 0 9993 2 43192 97.4698 184.8672 0013553 303.4194 216.2176 15.27063609169483 Shaonian Xing 1 43199U 18015H 21049.71500777 .00002033 00000-0 79742-4 0 9992 2 43199 97.4487 182.2932 0014824 314.7124 157.5164 15.26835160169524 SurfSat 1 43614U 18070B 21049.29854186 .00003781 00000-0 91632-4 0 9997 2 43614 93.0232 256.4938 0017124 103.5935 256.7229 15.40971070136318 CP-7 DAVE 1 43615U 18070C 21049.29508385 .00003638 00000-0 88868-4 0 9993 2 43615 93.0235 256.4632 0017316 103.5240 256.7946 15.40725997136305 ELFIN-B 1 43616U 18070D 21049.51662573 .00005789 00000-0 13115-3 0 9990 2 43616 93.0194 256.6231 0017275 102.1054 258.2139 15.42965136136426 ELFIN-A 1 43617U 18070E 21049.50801502 .00005504 00000-0 12333-3 0 9993 2 43617 93.0248 257.3530 0016640 99.3342 260.9797 15.43310683136432 STARS-Me Mother 1 43640U 98067PQ 21049.48907024 .00040423 00000-0 23067-3 0 9991 2 43640 51.6298 131.2487 0002896 282.6155 77.4522 15.78482134135391 CubeBel 1 1 43666U 18083E 21049.75704160 .00001233 00000-0 62240-4 0 9998 2 43666 97.4683 79.5678 0013685 216.8736 274.9851 15.18918211127993 Changshagaoxin 1 43669U 18083H 21049.84722556 .00000941 00000-0 49834-4 0 9999 2 43669 97.4583 77.0941 0009890 208.4704 255.4252 15.17798023127890 Ten-Koh 1 43677U 18084G 21049.75961301 .00000204 00000-0 26787-4 0 9996 2 43677 97.9034 172.6245 0017278 68.4108 291.8948 14.90401690125621 PO-101 1 43678U 18084H 21049.79364030 .00000286 00000-0 34131-4 0 9999 2 43678 97.9068 174.5965 0011507 84.2360 276.0147 14.91710800125740 IRVINE 01 1 43693U 18088D 21049.33260908 .00003015 00000-0 12045-3 0 9991 2 43693 85.0318 274.0719 0019027 103.0660 257.2708 15.24503796126289 QO-100 1 43700U 18090A 21049.43104949 .00000146 00000-0 00000-0 0 9993 2 43700 0.0148 119.5303 0002108 242.7563 327.2620 1.00272719 8178 Reaktor Hello World 1 43743U 18096AA 21049.69803660 .00001418 00000-0 54076-4 0 9999 2 43743 97.3967 128.1062 0016756 342.6142 17.4522 15.28250378123997 MinXSS-2 1 43758U 18099A 21049.44425309 -.00000082 00000-0 -21819-5 0 9999 2 43758 97.6800 123.0458 0016945 87.7179 272.5982 14.95910920120723 AO-95 1 43770U 18099N 21049.46744012 .00000568 00000-0 56765-4 0 9994 2 43770 97.6786 122.2178 0016044 95.9648 264.3402 14.95196605120678 RANGE-B 1 43772U 18099Q 21049.45148865 .00000131 00000-0 17021-4 0 9997 2 43772 97.6864 123.0212 0015488 84.1168 276.1818 14.95459850120679 RANGE-A 1 43773U 18099R 21049.46551220 .00000456 00000-0 46646-4 0 9997 2 43773 97.6722 121.6527 0015006 84.2812 276.0120 14.95121572120660 MOVE-II 1 43780U 18099Y 21049.47422239 .00000946 00000-0 89935-4 0 9995 2 43780 97.6798 122.6315 0015010 93.6832 266.6105 14.95728434120688 SNUSat 2 1 43782U 18099AA 21049.45276618 -.00000004 00000-0 47494-5 0 9994 2 43782 97.6782 122.5031 0014130 83.3191 276.9637 14.95447298120683 SnugLite 1 43784U 18099AC 21049.47074222 .00000665 00000-0 64983-4 0 9998 2 43784 97.6748 122.2786 0016601 90.5422 269.7701 14.95562364120700 ITASat 1 1 43786U 18099AE 21049.74520403 .00000704 00000-0 68567-4 0 9993 2 43786 97.6804 123.0849 0016758 88.8566 271.4575 14.95509276120742 EAGLET 1 1 43790U 18099AJ 21049.47404997 .00000655 00000-0 63593-4 0 9996 2 43790 97.6792 123.1822 0015054 93.5633 266.7311 14.95886473120428 ESEO 1 43792U 18099AL 21049.50877153 -.00000354 00000-0 -26671-4 0 9994 2 43792 97.6762 122.8968 0014778 89.8168 270.4747 14.95689221120480 CSIM 1 43793U 18099AM 21049.46162056 .00000481 00000-0 47458-4 0 9994 2 43793 97.6776 123.0589 0014254 88.5984 271.6870 14.96381058120476 Astrocast 0.1 1 43798U 18099AS 21049.43830437 -.00000138 00000-0 -71397-5 0 9992 2 43798 97.6798 123.3032 0013843 74.5522 285.7227 14.96037050120727 JO-97 1 43803U 18099AX 21049.46002145 .00000314 00000-0 33236-4 0 9992 2 43803 97.6763 122.5737 0016534 89.8798 270.4317 14.95726657120709 Suomi 100 1 43804U 18099AY 21049.46345741 .00000410 00000-0 41870-4 0 9995 2 43804 97.6760 122.5526 0016638 90.0082 270.3046 14.95704543120717 Al Farabi 2 1 43805U 18099AZ 21049.48061393 .00000870 00000-0 82719-4 0 9993 2 43805 97.6768 122.7361 0016883 90.7589 269.5573 14.95888315120722 PWSat 2 1 43814U 18099BJ 21049.78768397 .01265450 00000-0 90555-2 0 9997 2 43814 97.7750 146.6354 0012855 295.6491 64.3442 15.71027359121279 CHOMPTT 1 43855U 18104G 21049.32938753 .00001329 00000-0 53688-4 0 9994 2 43855 85.0391 12.4375 0015484 220.0753 139.9348 15.23593817120954 ISAT 1 43879U 18111D 21049.85066094 .00000544 00000-0 52936-4 0 9999 2 43879 97.6935 319.1621 0014116 133.9123 226.3232 14.96493151115314 UWE-4 1 43880U 18111E 21049.45649076 -.00000152 00000-0 -82215-5 0 9995 2 43880 97.6944 319.1822 0012949 137.4252 222.7976 14.96727850117282 Sparrow 1 43881U 18111F 21049.49831544 .00000896 00000-0 83248-4 0 9992 2 43881 97.6956 319.3325 0013566 134.1590 226.0749 14.96779925117297 Lume 1 1 43908U 18111AJ 21049.51222753 .00001410 00000-0 57694-4 0 9990 2 43908 97.2463 307.9676 0020750 357.6283 2.4854 15.25768302119534 FO-98 1 43933U 19003B 21049.57420623 .00007294 00000-0 30176-3 0 9992 2 43933 97.1992 95.5631 0019088 95.5001 264.8415 15.24070837115987 FO-99 1 43937U 19003F 21049.39831982 .00001515 00000-0 62591-4 0 9997 2 43937 97.1942 97.2778 0025211 76.0012 284.4027 15.25202707116115 Delphini 1 1 44030U 98067PW 21049.48607557 .00185393 24475-4 47760-3 0 9991 2 44030 51.6255 129.5619 0006318 345.5931 14.4896 15.94781136117284 MYSat 1 1 44045U 18092F 21049.47149802 .00003779 00000-0 10765-3 0 9996 2 44045 51.6379 286.2551 0011468 132.4868 227.7087 15.38618952113131 AstroCast 0.2 1 44083U 19018F 21049.73194991 .00000993 00000-0 46327-4 0 9994 2 44083 97.3895 112.9732 0013825 35.4539 324.7613 15.22103478104830 AISTechSat 3 1 44103U 19018AB 21049.81880345 .00000986 00000-0 43882-4 0 9996 2 44103 97.3758 113.3832 0014496 47.0994 45.7920 15.23717175104945 AISat 1 1 44104U 19018AC 21049.45782827 .00001149 00000-0 38257-4 0 9995 2 44104 97.4370 126.3744 0058648 59.7094 300.9932 15.31677753105453 Raavana-1 1 44329U 98067QE 21049.60270231 .00026013 00000-0 24435-3 0 9992 2 44329 51.6360 173.6284 0004602 212.5446 147.5267 15.66960476 95468 Uguisu 1 44330U 98067QF 21049.38116124 .00025516 00000-0 24216-3 0 9993 2 44330 51.6337 175.0846 0004626 209.8312 150.2421 15.66716118 95400 NepaliSat-1 1 44331U 98067QG 21049.33927307 .00025922 00000-0 24391-3 0 9997 2 44331 51.6334 174.8056 0004685 213.2327 146.8375 15.66920093 95417 Prox-1 1 44339U 19036A 21049.52326863 .00000988 00000-0 18340-3 0 9997 2 44339 24.0016 3.1310 0010131 321.0478 38.9283 14.53374206 87886 Oculus-ASR 1 44348U 19036K 21049.47168881 .00011146 00000-0 15503-3 0 9991 2 44348 28.5115 203.5089 0345407 62.5435 300.9841 15.08227056 90901 Armadillo 1 44352U 19036P 21049.50608120 .00017745 00000-0 23841-3 0 9990 2 44352 28.5270 189.7343 0322724 83.4872 280.2353 15.13684878 90992 NO-104 1 44354U 19036R 21049.54732606 .00011620 00000-0 15829-3 0 9996 2 44354 28.5265 197.7668 0341129 70.1466 293.5558 15.09542721 90954 NO-103 1 44355U 19036S 21049.50030747 .00029276 00000-0 35537-3 0 9994 2 44355 28.5258 169.8126 0297015 115.5307 247.6306 15.20992043 91241 CP9 1 44360U 19036X 21049.49850812 .00063838 -53194-5 56866-3 0 9999 2 44360 28.5088 128.9004 0247835 183.4971 176.3888 15.36488841 91522 Move-IIb 1 44398U 19038N 21049.63015716 .00001589 00000-0 92774-4 0 9990 2 44398 97.5668 14.3131 0024804 3.5329 356.6099 15.13153053 89792 SONATE 1 44400U 19038Q 21049.55777197 .00000783 00000-0 48727-4 0 9997 2 44400 97.5724 14.1954 0025299 2.8305 357.3065 15.12321417 89763 BeeSat 9 1 44412U 19038AC 21049.16980739 .00001261 00000-0 75024-4 0 9997 2 44412 97.5731 14.0037 0022708 9.4063 350.7588 15.12899657 89416 JAISAT-1 1 44419U 19038F 21049.11158499 .00001262 00000-0 74125-4 0 9991 2 44419 97.5735 14.3988 0021515 8.4089 351.7498 15.13383750 89747 LightSail-2 1 44420U 19036AC 21049.48021792 .00005430 00000-0 10986-2 0 9990 2 44420 24.0073 349.9780 0008378 303.4003 56.5687 14.58573632 86174 Taurus 1 1 44530U 19059C 21049.70804942 .00000636 00000-0 19126-3 0 9997 2 44530 98.5550 139.0612 0015660 139.8922 220.3430 14.45900132 75920 Duchifat 3 1 44854U 19089C 21049.46003688 .00000448 00000-0 42356-4 0 9993 2 44854 36.9679 84.2533 0008925 260.7570 99.2197 14.99331082 65236 OPS-SAT 1 44878U 19092F 21049.47505248 .00001220 00000-0 66640-4 0 9994 2 44878 97.4708 234.7411 0012944 218.4040 141.6273 15.16137589 64807 TO-108 1 44881U 19093C 21049.86167742 .00000057 00000-0 14060-4 0 9991 2 44881 97.9349 129.9337 0014125 323.2928 36.7307 14.81422566 63176 FloripaSat 1 1 44885U 19093G 21049.74526001 .00000266 00000-0 40073-4 0 9994 2 44885 97.9357 130.2342 0013893 332.3139 27.7339 14.82200964 63189 RS-44 1 44909U 19096E 21049.78998289 .00000028 00000-0 66322-4 0 9990 2 44909 82.5231 191.6405 0217488 10.8423 349.7256 12.79708483 53680 SwampSat-2 1 45115U 19071E 21049.35835705 .00022619 00000-0 49305-3 0 9990 2 45115 51.6372 244.9834 0009895 218.9941 141.0333 15.44109845 58987 HO-107 1 45119U 19071J 21049.43623765 .00002675 00000-0 88870-4 0 9995 2 45119 51.6410 253.6188 0011446 217.0466 142.9727 15.34897558 58880 Phoenix 1 45258U 98067RB 21049.44604546 .00008070 00000-0 12879-3 0 9998 2 45258 51.6397 203.3618 0005979 170.3350 189.7756 15.54169595 56687 AztechSat-1 1 45261U 98067RE 21049.80848434 .00019339 00000-0 25167-3 0 9992 2 45261 51.6380 196.7918 0006858 193.7791 166.3016 15.58754754 56823 QARMAN 1 45263U 98067RG 21049.70309468 .00014954 00000-0 21115-3 0 9999 2 45263 51.6384 199.8382 0006681 187.3630 172.7265 15.56776071 56813 Quetzal 1 1 45598U 98067RL 21049.81359777 .00012638 00000-0 18879-3 0 9990 2 45598 51.6398 202.0871 0002165 265.3543 94.7201 15.55421192 46061 BY70-2 1 45857U 20042B 21049.87569550 .00000916 00000-0 13824-3 0 9995 2 45857 97.9933 126.8444 0010419 228.3327 131.6975 14.76692355 34043 UPMSat 2 1 46276U 20061E 21049.44062493 .00000488 00000-0 28580-4 0 9999 2 46276 97.4447 125.5590 0002902 75.8595 284.2961 15.16278379 25504 AmicalSat 1 46287U 20061R 21049.45452860 .00000479 00000-0 33089-4 0 9993 2 46287 97.4998 125.2818 0003934 128.2334 231.9250 15.10232260 25386 SALSAT 1 46495U 20068K 21049.59004699 -.00000552 00000-0 -35991-4 0 9997 2 46495 97.6834 347.8722 0018278 109.9863 250.3333 15.03336025 21473 BY70-3 1 46839U 20079N 21049.74067759 .00002468 00000-0 80265-4 0 9994 2 46839 97.2524 125.9562 0005473 269.7003 207.1854 15.32821699 16018 SPOC 1 46921U 98067RR 21049.43197476 .00007564 00000-0 13093-3 0 9990 2 46921 51.6420 208.5368 0001756 3.5837 356.5165 15.51992369 16366 Bobcat-1 1 46922U 98067RS 21049.47395257 .00009721 00000-0 16219-3 0 9992 2 46922 51.6423 208.0716 0001350 6.3870 353.7137 15.52657650 16337 Neutron-1 1 46923U 98067RT 21049.50283261 .00007495 00000-0 13029-3 0 9990 2 46923 51.6416 208.2588 0001750 21.0820 339.0242 15.51886921 16408 CAPE 3 1 47309U 21002A 21049.42888797 .00001188 00000-0 66200-4 0 9993 2 47309 60.6889 16.7853 0020390 325.4070 34.5688 15.20353948 4780 OBJECT B 1 47310U 21002B 21049.48747436 .00001975 00000-0 10085-3 0 9998 2 47310 60.6877 16.5024 0018890 326.6466 33.3428 15.20722515 4780 AO-109 1 47311U 21002C 21049.47562763 .00000717 00000-0 43771-4 0 9998 2 47311 60.6868 16.4474 0016712 320.9296 39.0582 15.21251656 4764 OBJECT D 1 47312U 21002D 21049.47242985 .00005882 00000-0 26970-3 0 9999 2 47312 60.6881 16.4315 0017084 321.9879 38.0000 15.21558031 4755 OBJECT E 1 47313U 21002E 21049.33330926 .00002183 00000-0 10688-3 0 9998 2 47313 60.6857 16.8769 0018168 307.9824 51.9621 15.21816811 4749 MiTEE 1 1 47314U 21002F 21049.45239093 .00002288 00000-0 10970-3 0 9995 2 47314 60.6860 16.3205 0015627 303.4852 56.4741 15.22403068 4787 OBJECT G 1 47315U 21002G 21049.24837705 .00001567 00000-0 78195-4 0 9990 2 47315 60.6851 17.0223 0013050 302.7677 57.2151 15.22718056 4758 OBJECT J 1 47317U 21002J 21049.29584621 .00001025 00000-0 58693-4 0 9993 2 47317 60.6886 17.2691 0020169 324.5299 35.4444 15.20422407 4731 OBJECT K 1 47318U 21002K 21049.29520795 .00000985 00000-0 56817-4 0 9996 2 47318 60.6882 17.2656 0020108 324.0704 35.9028 15.20452214 4730 ExoCube 2 1 47319U 21002L 21049.41730422 .00000678 00000-0 42441-4 0 9998 2 47319 60.6870 16.7285 0017893 324.2828 35.7059 15.20894503 4728 OBJECT M 1 47320U 21002M 21049.47689014 .00000981 00000-0 55553-4 0 9991 2 47320 60.6858 16.4501 0017336 320.5015 39.4807 15.21199619 4812 OBJECT N 1 47345U 21002N 21049.33327829 .00002329 00000-0 11321-3 0 9998 2 47345 60.6860 16.8770 0018148 307.9064 52.0381 15.21818294 4487 UVSQ-SAT 1 47438U 21006AB 21049.40364411 .00000732 00000-0 45234-4 0 9998 2 47438 97.5041 112.6806 0013846 143.8984 216.3184 15.12852840 4057 YUSAT 1 1 47439U 21006AC 21049.80099244 .00000724 00000-0 44815-4 0 9997 2 47439 97.5042 113.0709 0013754 142.7602 217.4586 15.12823438 4115 SOMP 2b 1 47445U 21006AJ 21049.40601833 .00000676 00000-0 42259-4 0 9999 2 47445 97.5015 112.6647 0013362 147.1968 213.0095 15.12706671 4056 IDEASSat 1 47458U 21006AX 21049.80512801 .00000629 00000-0 39741-4 0 9993 2 47458 97.5103 113.0887 0012642 143.8692 216.3395 15.12572652 4112 /EX